Weather in Rehoboth Beach

United States     38°42′59″N   75°04′35″W
temp.,
°C
wind,
m/s
gust,
m/s
humid.,
%
clouds,
%
prec.,
mm/h
press.,
hPa
HPBL,
m
23 may, mon
mon2323:00+21wnw6984100 1.9 1018103
02:00+19nw699397 2.1 1018111
05:00+19nnw91290100 0.2 1019249
08:00+16nnw9117874 0.2 1022401
11:00+18n5670100 0.0 1022261
14:00+18ene337296 0.0 1022135
17:00+17ese4565100 0.0 1022239
20:00+17ese4566100 0.0 1023181
24 may, tue
tue2423:00+17se4473100 0.0 1023159
02:00+17e3480100 0.0 1022205
05:00+16ne5582100 0.1 1022346
08:00+16ene7879100 0.1 1024471
11:00+16e91173100 0.1 1024551
14:00+16e81073100 0.2 1024516
17:00+16e7873100 0.0 1024537
20:00+16e8976100 0.0 1024508
25 may, wed
wed2523:00+16e7877100 0.0 1025457
02:00+16e7881100 0.0 1024400
05:00+16e9987100 0.0 1024485
08:00+16e9108388 0.0 1025557
11:00+16e81081100 0.0 1026563
14:00+16e9108128 0.0 1026526
17:00+16e91079100 0.0 1026518
20:00+16e8107717 0.0 1026513
26 may, thu
thu2623:00+17e9117894 0.0 1026526
02:00+16ese81084100 1.2 1025537
05:00+16ese81190100 1.5 1024480
08:00+17ese71290100 1.7 1024493
11:00+18se71290100 0.6 1023400
14:00+18sse8109793 0.9 1021248
17:00+18sse899746 0.1 1019171
20:00+20wsw558929 0.1 101948
27 may, fri
fri2723:00+19s5892100 0.0 1019132
02:00+19s6119387 0.0 1018192
05:00+19ssw5995100 0.0 1017136
08:00+20ssw6891100 0.0 1017129
11:00+22s6783100 0.0 101650
14:00+21s91186100 0.0 1015123
17:00+21s101491100 0.0 1014158
20:00+20s91595100 1.4 1013265